Effingham, IL

1:17 AM CDT on September 20, 2019 (GMT -0500)
Effingham

Weather History for K1H2 - August, 2019

Change the Weather History Date:

Friday, August 23, 2019

  Actual Average (KMTO) Record (KMTO)
Temperature  
Mean Temperature 72 °F -  
Max Temperature 79 °F 83 °F 97 °F (2007)
Min Temperature 64 °F 62 °F 51 °F (1951)
Cooling Degree Days 6    
Growing Degree Days 22 (Base 50)    
Moisture  
Dew Point 61 °F    
Average Humidity 73    
Maximum Humidity 92    
Minimum Humidity 47    
Precipitation  
Precipitation 0.00 in - - ()
Sea Level Pressure  
Sea Level Pressure 30.10 in    
Wind  
Wind Speed 2 mph ()    
Max Wind Speed 9 mph    
Max Gust Speed -    
Visibility 8.8 miles    
Events Fog    
Averages and records for this station are not official NWS values.
T = Trace of Precipitation, MM = Missing Value Source: Averaged Metar Reports

Daily Weather History Graph

Daily Weather History Graph

Search for Another Location

Airport or City:

Astronomy

Aug. 23, 2019 Rise Set
Actual Time 6:14 AM CDT 7:38 PM CDT
Civil Twilight 5:46 AM CDT 8:06 PM CDT
Nautical Twilight 5:12 AM CDT 8:39 PM CDT
Astronomical Twilight 4:37 AM CDT 9:14 PM CDT
Moon No Moon Rise 1:47 PM CDT (8/23)
Length of Visible Light 14h 19m
Length of Day
13h 23m
Waning Gibbous, 49% of the Moon is Illuminated
Aug 23
Waning Gibbous
Aug 30
New
Sep 5
First Quarter
Sep 13
Full
Sep 21
Last Quarter

Hourly Weather History & Observations

Time (CDT) Temp. Dew Point Humidity Pressure Visibility Wind Dir Wind Speed Gust Speed Precip Events Conditions
12:15 AM 68.0 °F 65.3 °F 91% 30.03 in 0.2 mi Calm Calm - N/A Fog Fog
12:35 AM 67.6 °F 64.8 °F 90% 30.03 in 0.2 mi Calm Calm - N/A Fog Fog
12:55 AM 67.3 °F 64.6 °F 91% 30.04 in 0.2 mi Calm Calm - N/A Fog Fog
1:15 AM 66.7 °F 64.0 °F 91% 30.04 in 0.2 mi Calm Calm - N/A Fog Fog
1:35 AM 67.5 °F 64.6 °F 90% 30.04 in 0.5 mi Calm Calm - N/A Fog Fog
1:55 AM 68.0 °F 65.3 °F 91% 30.04 in 5.0 mi NNW 3.5 mph - N/A   Scattered Clouds
2:15 AM 68.5 °F 65.7 °F 90% 30.03 in 5.0 mi North 3.5 mph - N/A   Scattered Clouds
2:35 AM 68.2 °F 65.5 °F 91% 30.02 in 5.0 mi North 3.5 mph - N/A   Scattered Clouds
2:55 AM 68.0 °F 65.3 °F 91% 30.03 in 7.0 mi North 4.6 mph - N/A   Clear
3:15 AM 67.3 °F 64.6 °F 91% 30.03 in 7.0 mi North 3.5 mph - N/A   Clear
3:35 AM 66.4 °F 63.7 °F 91% 30.04 in 10.0 mi NNE 3.5 mph - N/A   Clear
3:55 AM 65.3 °F 62.8 °F 92% 30.04 in 10.0 mi Calm Calm - N/A   Clear
4:15 AM 64.8 °F 62.1 °F 91% 30.04 in 10.0 mi North 3.5 mph - N/A   Scattered Clouds
4:35 AM 64.6 °F 61.9 °F 91% 30.04 in 10.0 mi Calm Calm - N/A   Clear
4:55 AM 64.4 °F 61.7 °F 91% 30.05 in 10.0 mi Calm Calm - N/A   Clear
5:15 AM 64.4 °F 61.7 °F 91% 30.06 in 10.0 mi Calm Calm - N/A   Clear
5:35 AM 64.4 °F 61.7 °F 91% 30.07 in 10.0 mi Calm Calm - N/A   Clear
5:55 AM 64.0 °F 61.3 °F 91% 30.07 in 7.0 mi Calm Calm - N/A   Clear
6:15 AM 64.2 °F 61.7 °F 91% 30.07 in 7.0 mi Calm Calm - N/A   Clear
6:35 AM 64.4 °F 61.9 °F 92% 30.08 in 7.0 mi Calm Calm - N/A   Clear
6:55 AM 64.8 °F 62.2 °F 92% 30.09 in 7.0 mi Calm Calm - N/A   Clear
7:15 AM 64.9 °F 62.6 °F 92% 30.10 in 7.0 mi NE 3.5 mph - N/A   Clear
7:35 AM 65.8 °F 63.1 °F 91% 30.10 in 10.0 mi Calm Calm - N/A   Clear
7:55 AM 66.7 °F 63.1 °F 88% 30.11 in 10.0 mi Calm Calm - N/A   Clear
8:15 AM 67.3 °F 63.1 °F 87% 30.11 in 10.0 mi NNE 3.5 mph - N/A   Clear
8:35 AM 68.5 °F 63.5 °F 84% 30.11 in 10.0 mi NNE 3.5 mph - N/A   Clear
8:55 AM 70.0 °F 63.7 °F 80% 30.12 in 10.0 mi NNE 4.6 mph - N/A   Clear
9:15 AM 70.0 °F 63.3 °F 79% 30.11 in 10.0 mi NNE 6.9 mph - N/A   Clear
9:35 AM 71.4 °F 63.9 °F 77% 30.12 in 10.0 mi NE 5.8 mph - N/A   Clear
9:55 AM 72.7 °F 63.5 °F 73% 30.12 in 10.0 mi NNE 4.6 mph - N/A   Clear
10:15 AM 72.1 °F 63.1 °F 73% 30.12 in 10.0 mi NNE 4.6 mph - N/A   Clear
10:55 AM 73.0 °F 63.9 °F 73% 30.13 in 10.0 mi NE 4.6 mph - N/A   Clear
11:15 AM 74.7 °F 63.5 °F 68% 30.12 in 10.0 mi NE 5.8 mph - N/A   Clear
11:35 AM 74.5 °F 62.2 °F 66% 30.12 in 10.0 mi NE 5.8 mph - N/A   Clear
11:55 AM 75.2 °F 62.1 °F 64% 30.12 in 10.0 mi NNE 4.6 mph - N/A   Clear
12:15 PM 75.9 °F 63.7 °F 66% 30.13 in 10.0 mi ENE 5.8 mph - N/A   Clear
12:35 PM 76.6 °F 63.5 °F 64% 30.12 in 10.0 mi NNE 5.8 mph - N/A   Clear
12:55 PM 76.5 °F 60.1 °F 57% 30.12 in 10.0 mi NNE 5.8 mph - N/A   Scattered Clouds
1:35 PM 78.6 °F 61.0 °F 55% 30.13 in 10.0 mi NE 8.1 mph - N/A   Scattered Clouds
1:55 PM 78.8 °F 60.6 °F 54% 30.13 in 10.0 mi NE 6.9 mph - N/A   Mostly Cloudy
2:15 PM 78.3 °F 57.6 °F 49% 30.13 in 10.0 mi ENE 9.2 mph - N/A   Scattered Clouds
2:35 PM 79.3 °F 59.7 °F 51% 30.12 in 10.0 mi ENE 5.8 mph - N/A   Scattered Clouds
2:55 PM 77.5 °F 58.8 °F 52% 30.12 in 10.0 mi NE 5.8 mph - N/A   Scattered Clouds
3:15 PM 77.9 °F 58.3 °F 51% 30.12 in 10.0 mi NE 4.6 mph - N/A   Scattered Clouds
3:35 PM 79.2 °F 58.6 °F 49% 30.11 in 10.0 mi NE 5.8 mph - N/A   Scattered Clouds
3:55 PM 79.2 °F 58.5 °F 49% 30.11 in 10.0 mi NE 6.9 mph - N/A   Scattered Clouds
4:15 PM 78.6 °F 58.1 °F 49% 30.10 in 10.0 mi NE 5.8 mph - N/A   Scattered Clouds
4:35 PM 79.0 °F 57.0 °F 47% 30.10 in 10.0 mi ENE 8.1 mph - N/A   Scattered Clouds
4:55 PM 77.5 °F 57.2 °F 49% 30.11 in 10.0 mi Calm Calm - N/A   Scattered Clouds
5:15 PM 78.1 °F 57.0 °F 48% 30.11 in 10.0 mi NE 8.1 mph - N/A   Mostly Cloudy
5:35 PM 77.9 °F 56.5 °F 48% 30.11 in 10.0 mi NNE 6.9 mph - N/A   Scattered Clouds
5:55 PM 76.5 °F 57.2 °F 51% 30.11 in 10.0 mi North 3.5 mph - N/A   Scattered Clouds
6:35 PM 74.7 °F 55.6 °F 51% 30.11 in 10.0 mi Calm Calm - N/A   Scattered Clouds
6:55 PM 73.6 °F 55.6 °F 53% 30.11 in 10.0 mi NNE 3.5 mph - N/A   Clear
7:15 PM 72.5 °F 56.5 °F 57% 30.12 in 10.0 mi Calm Calm - N/A   Clear
7:35 PM 70.9 °F 57.6 °F 63% 30.12 in 10.0 mi Calm Calm - N/A   Clear
7:55 PM 69.8 °F 57.7 °F 65% 30.12 in 10.0 mi Calm Calm - N/A   Clear
8:15 PM 69.1 °F 57.6 °F 67% 30.14 in 10.0 mi Calm Calm - N/A   Clear
8:35 PM 68.2 °F 57.4 °F 68% 30.14 in 10.0 mi Calm Calm - N/A   Clear
8:55 PM 68.0 °F 57.2 °F 68% 30.14 in 10.0 mi Calm Calm - N/A   Clear
9:15 PM 67.3 °F 56.8 °F 69% 30.14 in 10.0 mi Calm Calm - N/A   Clear
9:35 PM 67.1 °F 56.3 °F 68% 30.16 in 10.0 mi Calm Calm - N/A   Clear
9:55 PM 66.7 °F 56.3 °F 69% 30.16 in 10.0 mi Calm Calm - N/A   Clear
10:15 PM 66.2 °F 56.5 °F 71% 30.17 in 10.0 mi Calm Calm - N/A   Clear
10:35 PM 65.3 °F 56.5 °F 73% 30.17 in 10.0 mi Calm Calm - N/A   Clear
10:55 PM 65.3 °F 56.3 °F 73% 30.18 in 10.0 mi Calm Calm - N/A   Clear
11:15 PM 64.8 °F 56.1 °F 74% 30.18 in 10.0 mi Calm Calm - N/A   Clear
11:35 PM 64.6 °F 55.8 °F 73% 30.18 in 10.0 mi Calm Calm - N/A   Clear
11:55 PM 64.0 °F 55.6 °F 74% 30.18 in 10.0 mi North 3.5 mph - N/A   Clear